Regional Weather Roundup
Issued by NWS Cleveland, OH

Home | Current Version | Previous Version | Graphics & Text | Print | Product List | Glossary On
Versions: 1 2 3 4 5 6 7 8 9 10 11 12 13 14 15 16 17 18 19 20 21 22 23 24 25 26 27 28 29 30 31 32 33 34 35 36 37 38 39 40 41 42 43 44 45 46 47 48 49 50
000
ASUS41 KCLE 302010
RWRCLE
OHIO REGIONAL WEATHER ROUNDUP
NATIONAL WEATHER SERVICE CLEVELAND, OH
400 PM EDT THU OCT 30 2014

NOTE: "FAIR" INDICATES FEW OR NO CLOUDS BELOW 12,000 FEET WITH NO
SIGNIFICANT WEATHER AND/OR OBSTRUCTIONS TO VISIBILITY.

OHZ001>008-015>018-024>027-034-035-043-044-302100-
   NORTHWEST OHIO

CITY           SKY/WX    TMP DP  RH WIND       PRES   REMARKS
DEFIANCE       CLOUDY    49  35  58 SW7       30.09F
FINDLAY        CLOUDY    50  33  52 W7        30.08F
TOLEDO EXPRESS CLOUDY    49  33  54 W7        30.08F
TOLEDO EXEC    CLOUDY    50  33  52 W7        30.09F
LIMA           CLOUDY    49  33  54 CALM      30.08F
$$

OHZ009>014-019>023-028>033-038-089-302100-
   NORTHEAST OHIO

CITY           SKY/WX    TMP DP  RH WIND       PRES   REMARKS
CLE-HOPKINS    PTSUNNY   48  37  65 NW7       30.10F
CLE-LAKEFRONT  MOSUNNY  N/A N/A N/A NW9       30.09
CUY CO. ARPT   PTSUNNY   48  39  71 NW12      30.09S
LORAIN-ELYRIA  CLOUDY    47  36  65 NW10      30.09S
ASHTABULA      CLOUDY    48  36  63 W10       30.07F
AKRON-CANTON   CLOUDY    49  35  58 NW3       30.07S
WOOSTER        CLOUDY    50  34  54 W6        30.08S
MANSFIELD      CLOUDY    47  33  58 W5        30.07F
YOUNGSTOWN     CLOUDY    48  35  60 W8        30.06S
$$

OHZ042-051>053-060>062-070>072-077>081-302100-
  SOUTHWEST OHIO

CITY           SKY/WX    TMP DP  RH WIND       PRES   REMARKS
CINC-COVINGTON MOSUNNY   53  33  46 SE3       30.07F
CINC-LUNKEN    MOSUNNY   54  33  45 E5        30.09F
HAMILTON       SUNNY     54  34  46 CALM      30.09F
DAYTON         PTSUNNY   51  33  50 CALM      30.10F
WRIGHT-PAT AFB CLOUDY    50  33  52 NW3       30.09F
DAYTON GENERAL PTSUNNY   52  34  50 W6        30.07F
WILMINGTON     MOSUNNY   53  31  42 SW6       30.07F
$$

OHZ036-037-039>041-045>050-054>059-063>069-073>076-082>088-302100-
  CENTRAL AND SOUTHEAST OHIO

CITY           SKY/WX    TMP DP  RH WIND       PRES   REMARKS
COLUMBUS       CLOUDY    49  32  52 CALM      30.08F
OSU AIRPORT    CLOUDY    48  33  56 CALM      30.09F
BOLTON FIELD   CLOUDY    48  34  57 N3        30.09F
RICKENBACK AFB CLOUDY    49  32  53 CALM      30.08F
NEWARK         CLOUDY    50  32  50 W3        30.08F
MARION         CLOUDY    49  33  54 NW6       30.08F
LANCASTER      CLOUDY    50  33  52 CALM      30.09F
ZANESVILLE     CLOUDY    50  32  50 CALM      30.08S
NEW PHILLY     CLOUDY    50  35  56 W3        30.08F
$$



USA.gov is the U.S. government's official web portal to all federal, state and local government web resources and services.